Torna al catalogo

QIANFAN-4

AttivoComunicazioniPO
NORAD 60382·PAYLOAD·🇨🇳 China

Lanciato Aug 6, 2024 da Taiyuan Satellite Launch Center

Loading…

Prossimi Passaggi (prossime 24 ore)

TLE

AggiornatoSource: Space-Track

Epoca: Sep 14, 2026, 14:08 UTC

1 60382U 24140D   26257.58950633  .00000012  00000-0 -54815-6 0  9994
2 60382  88.9671 270.5230 0014958 110.3221 249.9539 13.51020977104681

Traccia QIANFAN-4 in tempo reale con AllMySat

Download on the App Store